Humidity-temperature Sensor

Selected Measurement Type: Relative Humidity

 
Relative Humidity [%]     6 entries per hour
Showing data from 3/17/2015 (00:00:00 Z) to 3/16/2015 (00:01:00 Z)
Previous Next [ Day | 3-Days | 7-Days ]
First Last
Prev [ Day | 3-Days | 7-Days ] Next
First Last

Start Time:     :
End Time:     :     
Time (in GMT) :00 :50 :40 :30 :20 :10
Previous Next [ Day | 3-Days | 7-Days ]
First Last
Prev [ Day | 3-Days | 7-Days ] Next
First Last


123 => good data
MM => data is determined as missing
-- => data not received/configured
Back to Top Back to Top
3/17/2015 00:00 to 23:10 79.50 81.68 80.76 80.49 80.83 81.82
3/16/2015 23:00 to 22:10 81.95 82.30 82.86 82.72 81.72 82.01
3/16/2015 22:00 to 21:10 80.95 81.35 80.81 80.22 81.18 81.55
3/16/2015 21:00 to 20:10 82.68 82.45 82.34 82.59 83.20 83.82
3/16/2015 20:00 to 19:10 82.86 81.66 83.07 81.99 82.32 82.12
3/16/2015 19:00 to 18:10 82.74 82.61 81.06 81.43 81.89 82.93
3/16/2015 18:00 to 17:10 82.97 83.28 81.31 82.01 83.59 81.10
3/16/2015 17:00 to 16:10 80.45 80.04 81.01 79.73 79.23 79.18
3/16/2015 16:00 to 15:10 79.14 81.74 81.26 81.39 81.91 82.64
3/16/2015 15:00 to 14:10 82.10 82.76 82.84 82.03 81.51 82.74
3/16/2015 14:00 to 13:10 81.33 81.89 82.91 82.99 82.93 82.28
3/16/2015 13:00 to 12:10 82.57 82.57 83.43 83.90 84.24 84.07
3/16/2015 12:00 to 11:10 83.84 83.34 83.20 83.34 82.93 82.41
3/16/2015 11:00 to 10:10 83.05 82.66 82.32 82.41 83.82 82.68
3/16/2015 10:00 to 9:10 82.34 82.72 83.18 82.95 83.92 84.84
3/16/2015 09:00 to 8:10 84.59 84.26 84.76 84.44 86.15 85.23
3/16/2015 08:00 to 7:10 84.40 84.88 84.84 84.78 84.80 83.82
3/16/2015 07:00 to 6:10 83.74 83.09 83.53 83.34 83.11 83.22
3/16/2015 06:00 to 5:10 83.03 82.57 82.16 81.93 82.03 83.07
3/16/2015 05:00 to 4:10 82.07 81.76 81.47 81.55 81.43 80.45
3/16/2015 04:00 to 3:10 81.87 82.24 82.95 81.68 81.64 82.24
3/16/2015 03:00 to 2:10 81.68 82.43 81.43 82.57 82.43 81.14
3/16/2015 02:00 to 1:10 81.60 80.27 81.93 82.22 81.51 81.99
3/16/2015 01:00 to 0:10 82.99 82.64 80.93 81.60 80.14 79.89